Location: Unnamed
(54.5186°N, 36.2255°E)
Time: 20:55:41
(UTC+03:00)

ISS - Pass Details

Date: 19 February 2026
Orbit: 416 x 427 km, 51.6° (Epoch: 6 March)

Event Time Altitude Azimuth Distance (km) Brightness Sun altitude
Exits shadow 04:36:43 11° 118° (ESE) 1,419 -0.6 -28.1°
Drops below altitude 10° 04:37:05 10° 112° (ESE) 1,495 -0.4 -28.0°
Sets 04:39:57 0° 85° (E) 2,361 1.2 -27.6°
